DELTA 1 DEB, 7907

Orbit data source: Space-Track

DELTA 1 DEB, 7907 is space debris in SSO originally from a launch on Sun, 23 Jul 1972 UTC launched from the Air Force Western Test Range (AFWTR). Debris objects in space refer to the collection of defunct objects orbiting the Earth. Examples of debris include non-operational satellites, rocket bodies, and fragments generated from explosions, collisions, or faulty payload assembly.

Loading next visibility...
Identifier
7907, 1972-058BS
Orbit
SSO
Country
Flag of USUS
Related business
Manufacturer
Unknown
Mission
Spacecraft
Bus & Motor
Unknown
Mass
Unknown
Launch date (UTC)
1972-07-23 (53 years ago)
Launch vehicle
Unknown
Launch site
Air Force Western Test Range (AFWTR)
Object type
Payload
Rocket body
Debris
Shape & HBR
Unknown shape, 0.1 m
Radar Cross Section
Medium (>0.1 m² and <1 m²)

Expand to show TLE details & history
Last TLE update: 7 hours ago

TLE from 7 hours ago
0 DELTA 1 DEB
1  7907U 72058BS  25343.07472616  .00000821  00000-0  35875-3 0  9997
2  7907  97.6739 154.2243 0270555  62.2626 300.5708 14.08110610552776
Epoch: 2025-12-09T01:47Z
TLE epoch observation values (Epoch: 2025-12-09T01:47:36.340Z)
Latitude
0.00003°
Longitude
49.25826°
Altitude
773.087 km
Speed
7.517 km/s
True Right ascension
10h 16m 53s
True Declination
0° 00' 00"
Sunlit
Object was in daylight at epoch
Visualization orbit readout
Latitude
Unknown
Longitude
Unknown
Altitude
Unknown
Speed
Unknown
Apparent Right ascension
Unknown
Apparent Declination
Unknown
Sunlit
N/A
Visualization observer readout
Local Sidereal Time
07:21:19
Azimuth
Unknown
Elevation
Unknown
Doppler factor
Unknown
Orbital elements
Apogee altitude
1,058.881 km
Perigee altitude
667.058 km
Semi-major axis
7,241.106 km
Eccentricity
0.02706
Inclination
97.6739°
RAAN
154.2243°
Arg. of periapsis
62.2626°
True anomaly
297.85574°
Mean anomaly
300.5708°
Eccentric anomaly
299.21786°
Mean motion
3.52238 °/min
Orbital period
102.2 mins
BSTAR
0.00035875
Loading maneuver chart data...
Computing Atmospheric mass density...

Documentation

Showing up to 5 results
|